Wetbulb
55.98 55.06 54.60 55.40 55.54 55.50 54.91 53.86 52.22 48.35 48.89 50.25 50.41 52.71 52.82 53.15 52.33 52.55 52.31 51.42 48.74 48.41 48.56 50.01 51.98 53.40 54.05 54.73 55.56 56.63 57.60 58.33 58.63 58.89 59.05 59.24 59.20 59.07
56.25 55.73 55.54 55.65 55.76 56.14 55.98 55.50 54.74 53.13 50.47 53.58 53.32 53.52 54.10 53.65 52.82 52.43 52.63 50.66 48.70 47.09 46.78 47.08 48.23 49.88 51.18 51.86 52.48 53.26 54.48 55.29 56.31 57.02 57.78 58.06 58.53 58.21
55.97 55.14 54.95 55.87 55.33 55.49 55.61 55.28 54.16 53.99 51.69 53.38 54.70 55.35 52.07 53.11 54.31 54.26 53.99 53.47 53.75 48.47 47.22 46.96 46.50 46.59 47.54 48.20 48.85 49.88 50.97 52.29 53.34 54.85 56.20 55.46 54.06 53.17
55.76 55.56 55.19 55.33 54.62 54.58 54.46 54.06 53.96 54.55 53.27 51.44 53.54 53.85 50.29 52.61 53.30 53.50 54.02 54.49 54.71 52.49 48.72 47.36 46.91 46.13 45.78 45.78 46.35 46.52 47.13 48.54 50.11 51.62 50.91 50.82 51.18 50.95
55.78 55.48 55.33 55.08 54.35 54.30 54.03 53.48 53.71 53.87 53.68 52.79 52.45 54.21 54.00 51.30 50.18 51.26 52.42 53.32 53.64 52.51 48.53 47.06 47.15 46.93 46.10 45.36 45.54 45.68 46.03 46.61 45.38 45.11 45.27 45.33 45.95 45.92
56.11 55.81 55.56 55.09 54.62 54.56 54.30 54.02 53.65 53.21 53.05 52.73 52.70 52.55 52.92 53.77 50.33 52.01 52.23 51.87 51.67 53.36 50.76 49.20 47.59 45.89 44.78 44.25 43.96 44.78 44.91 43.53 42.55 41.33 40.20 39.15 38.79 38.98
54.58 54.66 54.97 53.75 50.08 51.67 54.07 53.50 52.94 52.13 52.07 51.65 51.75 52.08 52.14 51.96 51.33 53.09 52.48 53.13 54.01 52.36 52.05 48.70 46.97 44.53 44.15 43.47 44.15 43.32 41.88 40.97 40.05 39.35 38.54 37.47 36.80 36.91
54.02 54.35 54.65 49.25 49.00 45.26 44.44 45.85 51.00 52.12 51.28 51.60 51.56 51.09 51.66 52.59 53.56 53.17 51.68 51.32 50.04 43.77 43.71 39.96 41.50 40.79 42.11 42.30 41.07 39.46 38.99 38.86 38.93 38.75 38.19 37.58 36.97 36.38
54.66 54.90 55.06 55.59 50.11 54.27 46.86 42.53 43.25 42.76 45.59 53.09 51.98 52.25 52.33 53.38 53.79 52.65 52.29 51.08 51.00 39.84 37.30 33.59 36.44 35.71 38.84 39.09 38.71 38.61 38.16 37.78 37.67 37.86 37.92 37.65 37.41 37.17
55.30 55.27 55.30 55.36 55.35 54.46 53.99 53.02 50.30 46.99 41.58 41.98 46.31 44.93 40.15 37.57 40.71 42.68 42.79 33.30 33.25 33.27 34.88 31.91 33.24 32.50 36.47 37.38 38.27 38.16 37.79 37.34 37.17 37.38 37.70 37.70 37.43 37.51
54.59 45.33 39.40 44.98 43.11 41.43 51.49 51.15 39.63 31.58 33.34 33.70 33.81 32.64 32.54 32.69 33.99 36.09 32.91 33.96 31.19 28.32 29.12 31.54 30.99 31.02 31.43 31.83 33.98 36.40 36.30 35.57 34.80 34.83 34.32 34.21 34.49 35.02
35.03 33.66 34.02 33.77 35.12 36.39 37.98 41.83 32.09 28.07 28.55 28.58 28.26 28.52 28.99 29.41 29.93 28.59 31.27 29.64 28.64 26.88 27.12 28.18 28.04 29.06 27.15 28.82 29.18 29.17 29.51 30.29 30.52 30.76 30.85 31.13 31.28 29.80
31.32 30.45 31.31 32.43 32.65 32.75 32.48 31.20 28.98 29.18 27.89 27.22 26.73 26.42 26.44 26.42 26.57 27.24 27.43 26.94 24.83 22.85 27.31 28.10 26.23 26.73 26.24 25.83 26.95 27.06 27.14 26.90 26.63 26.79 27.94 28.38 28.91 28.86
27.61 27.85 29.00 30.30 30.53 30.35 29.09 29.36 28.79 27.23 26.14 24.98 24.29 23.73 24.07 24.74 25.17 26.09 26.71 26.42 26.74 25.38 26.49 27.06 25.09 24.43 23.38 22.40 22.58 25.86 25.95 25.87 25.38 25.05 25.78 26.58 26.81 27.20
27.59 27.37 27.22 27.49 27.18 26.53 27.26 26.90 26.06 25.37 24.11 22.55 21.52 21.22 22.12 23.19 24.09 23.89 25.16 25.94 24.72 25.06 25.76 25.24 24.29 24.23 23.82 22.36 21.89 22.51 22.05 23.79 24.99 23.73 23.94 23.38 22.52 22.50
25.49 24.35 23.91 24.01 22.92 22.79 22.68 22.86 22.51 22.00 21.23 20.16 19.72 20.73 21.59 20.92 19.97 21.42 20.37 21.78 20.30 20.47 22.11 21.80 20.93 21.79 20.35 21.00 21.05 20.10 21.71 19.74 22.22 22.13 22.02 22.11 20.92 19.59
23.15 22.14 20.94 20.44 19.74 19.47 19.12 19.48 19.86 19.53 18.32 18.71 18.32 17.95 18.08 18.28 17.07 18.15 17.85 17.56 15.27 14.91 15.12 17.68 19.73 20.26 20.18 19.55 17.27 16.31 16.08 16.44 17.76 18.19 18.20 17.07 16.51 17.33
20.26 18.30 17.44 17.37 16.59 16.82 16.62 16.62 16.91 16.54 16.32 16.47 15.62 15.44 14.75 14.55 14.30 14.27 14.63 13.55 12.42 12.79 13.09 15.03 15.34 14.42 14.67 15.68 19.08 14.15 13.95 13.43 14.97 16.67 17.37 14.55 14.98 17.56
16.16 15.70 14.77 15.14 15.41 15.56 14.88 14.48 13.15 14.03 13.86 12.28 11.85 11.85 12.56 12.31 11.93 11.53 11.06 10.71 10.58 11.59 12.20 13.21 11.95 9.99 3.67 1.61 11.90 17.67 12.48 13.84 13.72 12.42 14.06 13.77 12.03 14.60
13.57 12.59 11.68 12.11 12.29 11.85 11.85 11.19 10.32 9.40 8.93 8.78 7.41 6.67 7.44 8.44 7.62 7.82 8.44 6.47 8.31 9.47 9.50 10.37 9.92 9.43 6.29 -0.10 1.74 9.86 16.68 12.18 10.92 10.60 11.04 13.75 14.66 18.43
10.08 9.01 8.89 9.48 9.40 8.75 7.26 6.18 6.00 4.59 3.32 2.04 1.46 2.08 -0.06 4.97 3.54 4.55 4.64 4.39 5.35 6.87 5.83 6.64 9.09 11.96 11.64 10.69 -1.96 0.15 9.10 16.03 15.55 12.13 11.86 10.75 10.68 12.11
6.94 6.83 6.82 5.86 4.84 4.72 1.75 1.40 1.88 0.99 0.92 1.36 -2.52 -5.01 -6.43 -0.21 0.36 0.50 0.30 -0.11 4.96 5.06 5.55 7.32 9.42 9.63 8.73 6.66 4.73 1.98 6.59 9.24 13.28 15.97 17.15 16.20 11.28 7.99
2.26 3.89 2.21 -0.53 0.37 0.01 1.34 -2.75 -3.57 -3.86 -3.24 -4.15 -4.53 -4.15 -13.82 -5.70 -0.96 -1.44 -2.54 -0.29 2.29 2.88 4.05 4.19 5.95 7.13 6.31 6.06 5.21 4.57 5.03 5.37 8.07 8.25 10.65 16.31 17.49 18.27
MSLP
1016.85 1017.23 1017.50 1017.69 1017.19 1017.34 1017.72 1018.09 1018.27 1019.29 1019.11 1018.76 1018.82 1018.14 1018.22 1018.26 1018.06 1018.07 1018.17 1017.97 1017.99 1018.12 1018.12 1018.20 1018.26 1018.20 1018.28 1018.30 1018.29 1018.37 1018.42 1018.40 1018.49 1018.57 1018.87 1018.94 1019.12 1019.46
1016.21 1016.62 1016.83 1016.56 1016.65 1016.88 1017.14 1017.50 1017.62 1017.86 1017.89 1017.88 1017.67 1017.40 1017.10 1017.23 1016.98 1017.06 1016.91 1016.73 1016.69 1016.76 1016.86 1016.84 1016.90 1016.91 1017.02 1017.14 1017.32 1017.39 1017.42 1017.48 1017.37 1017.33 1017.45 1017.67 1017.74 1018.14
1015.39 1015.61 1015.46 1015.53 1015.82 1016.07 1016.30 1016.52 1016.70 1016.66 1016.86 1016.39 1016.33 1016.34 1016.51 1016.43 1016.19 1015.96 1015.88 1015.79 1015.54 1015.56 1015.44 1015.45 1015.54 1015.60 1015.74 1015.73 1015.77 1015.93 1016.08 1016.22 1016.21 1016.15 1016.24 1016.31 1016.73 1017.22
1014.18 1014.37 1014.33 1014.65 1014.95 1014.99 1015.22 1015.41 1015.48 1015.63 1015.70 1015.57 1015.46 1015.57 1015.68 1015.22 1015.03 1014.99 1014.74 1014.47 1014.36 1014.16 1014.01 1014.17 1014.26 1014.27 1014.45 1014.49 1014.65 1014.70 1015.09 1015.18 1015.27 1015.25 1015.57 1015.57 1016.06 1016.66
1013.07 1013.20 1013.24 1013.68 1013.84 1014.06 1014.29 1014.51 1014.68 1014.71 1014.68 1014.68 1014.48 1014.29 1014.14 1014.33 1014.23 1014.12 1013.69 1013.60 1013.32 1012.86 1012.98 1012.84 1012.63 1012.73 1012.93 1013.14 1013.36 1013.68 1013.91 1014.00 1014.29 1014.64 1015.05 1015.45 1016.03 1016.62
1012.12 1012.13 1012.26 1012.55 1012.63 1012.93 1013.25 1013.34 1013.47 1013.67 1013.73 1013.68 1013.44 1013.22 1013.22 1013.07 1013.28 1013.13 1012.60 1012.59 1012.28 1012.11 1012.01 1011.89 1012.03 1012.19 1012.35 1012.54 1012.78 1012.97 1013.50 1013.63 1014.31 1014.88 1015.32 1015.95 1016.49 1017.01
1011.34 1011.26 1011.33 1011.51 1011.58 1011.62 1011.93 1012.10 1012.45 1012.63 1012.65 1012.61 1012.35 1012.14 1011.99 1011.95 1011.73 1011.68 1011.20 1011.03 1010.64 1011.07 1011.11 1011.27 1011.56 1011.79 1011.84 1011.85 1011.99 1012.40 1012.89 1013.63 1014.53 1014.84 1015.40 1015.81 1016.16 1016.56
1010.03 1010.05 1010.11 1010.26 1010.15 1010.24 1010.61 1010.72 1010.95 1011.27 1011.38 1011.24 1010.75 1010.48 1010.17 1010.01 1010.14 1010.14 1010.23 1010.26 1009.64 1010.04 1010.44 1010.67 1011.03 1010.87 1011.46 1011.41 1011.37 1012.31 1012.94 1013.65 1014.49 1014.95 1015.27 1015.72 1016.21 1016.77
1008.79 1008.74 1008.69 1008.69 1008.87 1009.03 1009.17 1009.49 1009.65 1009.66 1009.52 1009.48 1009.08 1008.91 1008.86 1008.75 1008.92 1008.86 1008.82 1008.99 1008.98 1009.71 1010.12 1010.88 1011.34 1011.16 1011.35 1011.70 1011.90 1012.25 1013.15 1013.67 1014.44 1015.04 1015.22 1015.41 1015.85 1016.41
1007.52 1007.44 1007.46 1007.40 1007.34 1007.49 1007.67 1007.78 1007.96 1008.48 1008.97 1009.10 1009.15 1009.00 1009.26 1009.45 1009.08 1008.48 1008.48 1009.32 1010.23 1010.53 1010.71 1011.07 1011.77 1011.84 1012.01 1011.76 1012.61 1012.82 1013.19 1013.48 1014.50 1014.81 1015.17 1015.27 1015.33 1015.59
1006.55 1007.38 1007.83 1007.28 1006.84 1007.16 1006.70 1006.89 1007.78 1009.20 1009.86 1009.68 1009.91 1010.33 1010.67 1010.11 1009.66 1009.58 1009.54 1009.89 1010.54 1011.38 1011.35 1010.79 1012.55 1012.26 1013.06 1012.96 1013.47 1013.17 1013.95 1014.32 1015.14 1015.22 1015.30 1015.24 1015.48 1015.47
1008.76 1009.08 1009.22 1008.99 1007.86 1007.25 1006.76 1006.84 1008.26 1010.05 1010.66 1010.78 1010.79 1010.67 1011.11 1011.30 1010.75 1010.41 1010.65 1010.80 1010.92 1012.11 1013.24 1012.79 1012.82 1013.06 1013.47 1014.10 1013.91 1014.17 1015.05 1015.44 1015.23 1015.68 1015.99 1015.76 1015.93 1016.26
1010.36 1011.01 1011.10 1010.06 1009.16 1008.95 1008.51 1008.73 1009.21 1009.90 1011.10 1012.16 1012.23 1011.85 1011.63 1011.86 1011.88 1011.84 1011.98 1011.99 1012.65 1013.18 1014.19 1013.64 1012.89 1014.26 1013.37 1015.22 1014.83 1014.53 1015.76 1016.32 1016.14 1016.06 1016.26 1016.28 1016.18 1016.08
1011.54 1012.21 1012.00 1010.65 1012.18 1010.79 1010.43 1011.93 1011.55 1011.48 1012.09 1012.99 1013.32 1013.17 1012.90 1013.87 1013.48 1013.72 1013.68 1014.06 1014.06 1014.26 1013.91 1013.88 1014.46 1014.65 1015.10 1015.57 1015.72 1015.87 1015.58 1016.24 1016.19 1015.89 1016.21 1016.33 1016.28 1016.09
1013.59 1013.34 1013.22 1012.79 1012.16 1013.07 1012.78 1013.22 1013.56 1013.69 1013.75 1014.12 1013.96 1014.43 1015.01 1014.94 1014.78 1015.96 1015.43 1014.89 1015.55 1015.32 1015.19 1015.66 1015.16 1015.68 1016.15 1016.34 1016.69 1016.58 1016.39 1016.17 1016.04 1016.11 1016.19 1016.20 1015.98 1015.88
1014.27 1015.27 1015.33 1013.89 1014.57 1015.89 1014.11 1014.64 1016.14 1016.17 1015.52 1015.74 1015.11 1016.89 1015.86 1017.38 1016.50 1015.78 1017.40 1015.57 1016.10 1016.18 1016.32 1016.90 1017.11 1016.77 1016.72 1016.77 1016.77 1016.82 1016.66 1016.45 1016.37 1016.55 1016.65 1016.29 1016.21 1015.81
1015.71 1016.11 1016.33 1016.36 1017.32 1017.66 1017.17 1017.50 1017.17 1017.07 1016.84 1017.46 1017.69 1017.73 1017.32 1017.95 1017.23 1018.32 1018.16 1017.06 1017.02 1017.50 1017.43 1017.33 1017.53 1017.08 1017.03 1017.35 1017.43 1017.80 1017.57 1016.99 1016.95 1016.92 1016.70 1016.20 1015.82 1015.91
1017.08 1017.66 1018.33 1018.67 1019.00 1019.24 1018.86 1018.47 1018.32 1017.97 1018.29 1018.83 1018.85 1018.75 1018.77 1018.62 1019.19 1019.42 1018.67 1018.77 1018.66 1018.65 1018.21 1018.30 1018.25 1018.04 1017.94 1018.20 1017.66 1017.45 1017.51 1017.52 1017.31 1017.01 1016.70 1016.29 1015.50 1015.31
1018.78 1019.51 1019.92 1019.89 1019.99 1020.12 1019.84 1019.61 1019.53 1019.71 1019.84 1020.11 1020.71 1020.50 1020.26 1020.01 1020.17 1020.12 1019.99 1020.03 1019.77 1019.71 1019.44 1019.33 1019.58 1019.47 1019.30 1019.25 1018.35 1017.75 1017.59 1017.79 1016.95 1016.76 1016.66 1016.24 1015.44 1014.99
1020.73 1021.12 1021.35 1021.44 1021.50 1021.58 1021.49 1021.68 1021.74 1021.95 1021.77 1021.74 1021.88 1022.13 1021.73 1021.11 1021.42 1021.54 1021.46 1021.39 1020.91 1020.98 1020.45 1019.97 1020.09 1020.26 1020.13 1019.65 1019.26 1018.22 1017.88 1017.49 1017.18 1016.59 1015.96 1015.57 1014.93 1014.33
1022.71 1022.89 1023.05 1023.00 1023.13 1023.29 1023.39 1023.31 1023.44 1023.52 1023.54 1023.33 1023.53 1023.01 1022.86 1022.41 1022.82 1022.96 1022.56 1022.41 1022.04 1021.76 1021.10 1020.64 1020.61 1020.62 1020.29 1019.67 1019.46 1018.81 1017.88 1017.35 1016.69 1016.17 1015.73 1015.15 1014.18 1013.39
1024.37 1024.35 1024.54 1024.60 1024.56 1024.56 1024.69 1024.68 1024.68 1024.65 1024.58 1024.44 1024.47 1024.32 1024.13 1023.90 1024.02 1023.94 1023.76 1023.38 1022.86 1022.23 1021.73 1021.20 1020.86 1020.51 1020.37 1020.40 1020.06 1019.00 1017.89 1016.98 1016.51 1015.88 1015.21 1014.78 1013.99 1012.52
1025.75 1025.75 1025.78 1025.68 1025.59 1025.48 1025.71 1025.84 1025.75 1025.75 1025.70 1025.69 1025.53 1025.36 1025.10 1025.00 1024.76 1024.69 1024.37 1023.91 1023.30 1022.75 1022.29 1022.05 1021.72 1021.24 1020.75 1020.43 1020.08 1019.07 1017.99 1016.99 1016.23 1015.32 1014.43 1013.79 1012.85 1011.93
Wind_Speed
10 10 11 8 4 5 4 4 6 5 5 4 4 7 8 9 13 13 13 18 20 22 24 24 26 27 27 28 28 28 30 31 30 31 33 33 31 30
12 14 12 6 7 6 6 5 4 5 9 6 8 6 6 8 11 13 14 18 19 20 23 24 25 26 26 25 24 25 27 28 29 30 29 29 29 27
14 14 14 12 8 8 9 9 8 7 12 12 13 10 7 12 11 10 12 12 12 19 23 23 22 22 24 23 23 23 24 26 28 28 28 20 18 19
14 13 14 9 11 12 9 12 11 12 11 15 14 11 9 11 12 13 12 12 13 18 20 20 22 22 23 22 21 19 20 22 25 23 22 20 21 19
15 15 15 13 13 10 11 10 10 10 11 11 14 12 12 6 9 10 13 13 11 21 17 20 24 24 23 21 19 18 18 17 15 14 13 12 12 11
14 15 15 15 17 16 14 14 13 12 11 12 13 14 12 12 6 11 13 10 13 12 14 16 12 15 14 13 13 15 16 14 13 13 12 10 9 8
15 15 15 17 19 19 13 16 15 13 12 13 14 14 14 12 13 12 15 13 14 9 10 6 7 5 6 12 11 15 14 15 14 14 13 12 12 12
17 18 17 16 20 21 21 24 20 16 17 15 15 17 19 16 14 13 13 14 15 5 7 5 3 4 4 5 13 16 16 14 12 12 11 11 11 12
18 18 17 15 18 18 21 22 24 25 26 21 21 19 18 16 16 16 15 14 16 2 3 2 2 2 3 7 15 15 14 11 9 8 10 11 11 12
20 20 19 20 19 19 20 20 19 13 11 11 17 13 8 6 6 3 3 5 4 5 4 2 2 3 4 5 11 12 10 7 5 8 11 13 14 13
19 6 6 9 10 9 18 19 6 7 13 17 17 19 19 19 14 2 1 3 2 2 5 4 2 3 2 3 2 5 6 4 1 5 8 8 5 3
8 8 15 12 11 9 4 7 8 6 7 8 9 14 14 16 22 12 6 5 3 3 6 2 3 2 2 3 5 6 5 11 12 11 11 10 10 4
9 10 11 22 24 25 21 12 11 11 11 8 8 8 11 11 10 11 11 8 5 6 7 2 4 3 4 1 2 5 4 3 4 5 7 7 8 7
11 8 12 27 28 27 21 25 23 14 9 9 9 10 10 8 10 9 12 11 10 10 9 9 3 4 3 2 2 1 1 2 2 1 0 5 7 10
10 19 23 23 24 18 29 25 14 9 8 9 8 10 8 8 8 9 8 11 11 11 10 11 7 5 4 3 2 2 5 2 3 2 2 2 2 1
13 13 12 18 21 13 14 16 10 10 9 8 10 7 7 8 8 9 7 5 7 7 12 11 9 7 4 3 2 3 3 3 5 5 5 3 3 2
11 10 10 11 10 9 9 10 9 9 10 8 7 7 8 7 10 7 6 6 7 5 6 7 8 6 4 5 2 5 6 5 5 7 8 6 3 4
10 9 9 8 8 7 7 8 8 10 9 8 8 8 8 7 7 6 6 6 6 6 6 7 7 6 5 5 8 5 4 5 6 7 8 8 7 5
10 9 8 8 7 8 8 8 9 9 10 8 7 7 6 6 7 7 7 6 6 6 6 6 6 5 3 2 4 7 7 6 6 7 7 8 10 9
9 8 8 8 8 8 7 7 7 7 7 7 7 6 6 6 6 6 6 4 4 5 4 5 5 6 4 2 3 5 12 8 6 8 8 9 9 21
8 8 7 7 7 7 6 6 6 6 5 6 5 6 5 5 5 4 4 5 5 5 5 5 5 9 5 4 4 4 5 15 15 11 10 10 11 11
7 7 6 6 6 5 4 4 5 5 5 5 5 5 5 4 3 4 4 2 4 4 4 5 6 6 5 6 7 7 7 7 13 20 21 20 10 11
4 5 4 3 3 3 4 4 5 4 5 4 4 4 3 3 4 2 3 3 4 4 5 4 5 5 5 6 8 8 12 11 9 11 11 21 25 27
Wind_Direction
229 229 225 226 193 184 173 179 175 196 247 237 244 204 218 224 231 233 232 238 228 232 232 233 234 233 235 238 240 242 244 245 245 243 243 238 237 239
220 223 217 203 198 194 189 191 192 204 255 254 251 225 215 229 234 228 233 233 234 231 233 233 232 234 238 239 241 244 247 249 249 246 242 241 237 230
217 215 221 217 210 205 209 207 213 215 242 251 252 251 231 231 241 234 237 238 242 236 237 238 234 234 234 231 234 236 241 248 249 244 243 214 197 200
217 215 224 220 224 221 222 230 233 229 229 242 248 252 230 235 237 241 241 239 241 240 235 232 235 238 234 233 238 238 243 244 246 229 202 190 197 203
221 219 223 216 225 226 228 230 233 235 231 236 246 251 252 229 233 240 245 249 245 245 243 232 233 234 232 231 232 234 231 229 195 174 168 163 166 173
231 233 232 227 232 232 232 233 237 236 235 237 242 251 252 255 229 253 256 235 251 243 240 243 237 235 228 227 221 216 200 163 153 149 146 146 148 163
237 235 231 230 232 232 234 241 241 241 242 245 247 251 250 250 241 247 252 258 252 228 242 223 218 210 217 204 197 176 152 152 161 161 167 172 177 187
238 239 241 234 236 235 228 235 236 231 237 241 246 246 246 246 246 241 240 248 261 178 189 202 174 184 194 182 152 144 148 156 168 174 177 183 188 203
242 244 243 240 234 238 228 227 236 235 238 245 246 243 253 248 241 243 241 239 248 168 129 149 352 106 117 122 134 135 143 150 166 189 194 197 210 217
243 243 242 241 236 230 234 234 230 241 252 243 256 285 317 309 270 235 202 123 85 51 11 90 21 35 63 116 134 137 143 155 214 234 239 232 221 220
242 327 338 304 320 288 240 232 189 101 73 66 79 57 52 44 33 25 56 141 117 44 11 106 356 87 33 55 51 82 79 64 6 57 54 48 24 316
40 46 24 10 11 354 247 260 123 90 75 66 63 65 52 45 46 50 19 65 94 77 358 16 33 45 72 18 54 58 58 46 43 22 359 351 340 335
56 46 27 45 55 53 57 56 88 99 83 67 57 44 48 50 49 45 45 52 70 71 3 329 62 350 64 28 20 65 52 16 8 347 342 328 313 303
75 66 62 66 52 59 64 60 67 71 71 64 56 55 39 39 39 46 53 51 54 61 45 30 68 49 29 29 11 27 40 255 244 297 315 320 323 320
58 62 56 49 57 49 52 48 50 41 57 61 65 46 51 43 59 29 32 61 53 48 46 39 45 40 28 19 337 336 342 338 319 345 327 281 259 277
55 51 46 53 48 44 46 54 43 46 55 52 54 37 57 38 42 46 13 41 55 52 47 41 30 24 31 20 352 335 328 314 6 10 338 304 303 286
61 52 42 46 46 41 49 47 50 47 46 44 51 46 50 42 44 27 23 38 57 32 28 23 17 12 16 11 1 38 5 359 347 334 325 315 289 271
59 60 53 51 51 43 44 50 44 49 45 41 40 40 40 41 41 30 35 32 32 24 27 23 17 22 21 345 39 13 356 330 316 313 317 306 301 296
59 50 47 43 45 40 38 40 42 38 45 45 35 33 38 42 34 34 31 24 27 23 24 30 21 23 16 306 306 359 335 318 327 316 306 296 294 295
50 50 47 40 38 38 39 39 42 37 40 42 42 28 23 38 32 23 26 14 20 12 12 24 16 3 347 257 284 307 321 316 307 303 304 292 282 287
47 47 38 40 40 41 36 45 49 49 43 46 30 36 21 36 33 19 15 14 10 9 9 8 351 340 316 327 358 313 297 316 317 311 308 297 296 295
43 48 42 39 35 37 30 25 49 39 35 35 26 28 10 26 23 13 7 344 354 359 351 342 338 344 339 327 307 305 309 308 308 303 301 295 292 286
40 54 45 31 26 35 45 44 53 40 34 30 26 14 10 13 4 355 353 346 350 350 352 336 333 334 328 324 311 307 310 309 313 312 299 298 295 293